Lid_Strength_Index
10 9 10 10 10 10 12 11 14 14 14 11 10 9 8 7 6 6 6 5 5 5 5 5 5 4 4 3 2 2 2 1 1 1 1 2 1 1 0 0 0 0 1 1
12 10 10 11 9 9 10 10 11 12 13 9 8 7 7 7 6 6 6 5 5 5 4 5 5 5 4 4 3 3 3 2 1 1 2 1 1 2 1 1 1 1 1 1
15 11 11 14 11 10 10 9 11 14 12 8 8 8 7 6 6 6 6 5 6 6 6 7 4 4 5 5 4 4 4 4 3 3 3 2 2 2 3 3 1 1 1 1
14 12 17 12 9 8 9 8 9 10 9 8 8 6 6 6 6 6 6 5 5 5 5 4 4 5 3 3 3 4 4 4 3 3 3 3 3 3 3 3 3 2 1 1
14 15 12 10 9 10 10 11 8 9 8 7 7 7 7 6 6 6 6 6 6 4 4 4 4 4 3 3 3 4 4 4 3 3 4 3 4 4 3 3 3 2 2 1
13 16 16 11 8 7 7 14 7 7 8 8 7 10 10 7 6 6 6 6 6 5 4 4 4 3 3 3 3 4 3 3 2 2 3 3 3 4 3 3 3 2 2 1
13 15 12 8 8 7 13 12 7 6 7 7 10 8 8 6 6 6 6 6 5 5 5 4 4 4 4 3 4 3 2 2 1 2 1 2 1 2 3 4 3 3 2 1
13 15 17 6 7 11 9 7 6 6 6 7 7 6 6 6 6 6 6 5 5 5 5 4 4 5 5 5 4 3 3 3 3 2 2 1 1 1 1 1 2 2 2 2
12 13 8 7 7 6 6 6 6 6 6 5 6 6 6 6 6 6 6 6 6 6 6 6 5 6 6 5 5 4 4 3 3 3 3 2 2 2 3 2 3 2 2 3
11 9 7 6 5 5 5 6 6 6 6 6 7 6 6 6 7 7 6 7 6 6 7 7 6 6 6 6 6 6 6 6 5 4 4 4 3 2 3 3 3 3 3 3
10 8 7 6 5 6 5 5 5 5 6 6 6 6 6 6 6 6 5 6 6 7 7 7 7 7 7 7 7 7 7 7 6 6 6 5 4 4 4 3 5 6 5 3
12 8 8 7 5 5 5 5 5 5 4 4 4 5 4 5 5 6 6 6 6 6 6 6 6 7 7 6 6 7 7 7 7 7 6 6 5 5 5 6 7 8 9 8
8 5 6 5 4 4 4 4 3 4 4 5 4 4 4 5 5 4 5 5 6 6 6 6 6 5 6 5 6 6 7 6 7 6 6 6 6 5 5 5 6 7 8 8
5 5 6 5 6 3 3 3 3 3 3 3 4 3 4 4 5 5 5 5 5 5 6 6 6 7 6 6 6 6 6 5 7 7 7 7 6 6 6 6 5 5 5 6
5 4 5 5 4 4 3 3 4 4 4 4 3 3 3 4 3 4 4 4 5 5 5 6 6 6 5 6 6 7 7 8 7 8 7 6 6 6 6 6 6 5 5 5
5 5 5 5 5 4 4 4 4 4 4 4 4 3 3 3 4 4 4 4 5 6 6 6 6 6 5 5 7 7 7 5 5 8 7 7 7 7 6 6 7 6 5 5
6 6 6 5 5 5 5 5 4 4 4 4 3 3 3 3 5 5 5 5 5 5 6 6 6 5 6 6 7 7 8 8 6 8 9 9 8 8 8 8 7 7 6 6
4 4 4 4 4 4 4 4 4 4 4 3 3 3 4 4 5 5 5 5 5 6 6 4 5 6 6 6 7 8 9 9 9 10 9 9 10 9 9 9 9 8 8 7
3 4 4 3 3 4 4 4 3 3 3 3 3 3 3 3 4 3 3 4 5 6 6 5 3 4 6 5 7 9 9 9 10 10 10 9 10 10 10 10 10 9 9 9
3 3 3 3 3 3 3 3 3 3 3 3 3 3 3 3 3 3 3 3 3 3 3 3 3 4 5 4 4 7 7 8 9 9 9 8 9 10 10 10 10 10 10 9
4 3 3 3 3 3 3 3 3 3 3 2 3 3 3 3 2 3 3 3 3 2 2 0 3 3 4 4 5 6 7 7 8 8 8 9 8 9 10 10 9 9 9 9
3 4 3 3 3 3 3 3 3 3 3 3 3 4 4 3 3 3 2 2 1 1 2 2 2 1 3 2 6 6 6 6 7 7 7 8 9 8 9 9 9 9 10 10
4 3 3 3 4 3 3 3 3 2 3 3 3 3 3 3 2 3 4 1 1 1 1 2 1 0 0 4 4 4 5 5 6 6 7 8 9 8 9 10 10 10 10 11
3 3 3 3 3 3 4 3 3 3 2 2 2 3 3 3 2 2 2 1 1 1 1 2 1 0 1 4 4 3 4 4 3 5 6 6 9 9 10 10 11 10 11 11
3 3 3 3 4 4 3 3 3 3 3 3 2 2 2 1 2 2 2 1 1 1 2 1 0 1 3 3 3 3 3 3 4 5 7 9 10 9 10 10 11 11 11 11
3 3 3 3 3 3 3 3 3 3 3 3 3 2 2 1 1 1 1 1 1 1 2 2 2 2 3 3 2 2 2 3 4 6 7 8 9 9 10 10 10 10 11 12
3 3 3 3 2 2 2 3 3 3 3 3 3 2 2 2 1 2 1 1 1 1 1 1 1 1 1 2 2 1 2 2 3 4 6 7 9 9 10 10 9 10 10 11